FW3330 Weather Reports


Display with metric or nautical units.
time (UTC)temp
F
wind
direction
speed
MPH
gust
MPH
rain 1hr
in
rain 24hr
in
rain mn
in
humidity
%
barometer
mb
20260503211333 70 231 1.0 4.0 0.00 0.01 0.01 63 1019.9
20260503210324 70 296 0.0 5.0 0.00 0.01 0.01 63 1019.8
20260503205337 70 296 1.0 4.0 0.00 0.01 0.01 62 1019.9
20260503204325 70 293 2.0 3.0 0.00 0.01 0.01 63 1020.2
20260503203339 70 260 1.0 4.0 0.00 0.01 0.01 62 1020.4
20260503202326 71 251 0.0 4.0 0.00 0.01 0.01 62 1020.5
20260503201340 71 181 2.0 5.0 0.00 0.01 0.01 64 1020.5
20260503200331 71 314 0.0 0.0 0.00 0.01 0.01 61 1020.8
20260503195347 71 181 0.0 2.0 0.00 0.03 0.01 63 1020.8
20260503194318 71 181 1.0 3.0 0.00 0.03 0.01 64 1021.1
20260503193332 70 272 0.0 4.0 0.00 0.03 0.01 61 1021.2
20260503192345 70 315 2.0 5.0 0.00 0.03 0.01 63 1021.4
20260503191336 70 328 1.0 4.0 0.00 0.03 0.01 63 1021.7
20260503190323 69 256 2.0 7.0 0.00 0.03 0.01 64 1021.8
20260503185336 69 311 0.0 5.0 0.00 0.07 0.01 65 1022.0
20260503184322 68 314 0.0 7.0 0.00 0.07 0.01 68 1022.1
20260503183338 69 4 0.0 5.0 0.00 0.07 0.01 69 1022.2
20260503182349 69 135 1.0 5.0 0.00 0.07 0.01 63 1022.4
20260503181403 68 337 0.0 0.0 0.00 0.07 0.01 67 1022.5
20260503180331 68 300 0.0 0.0 0.00 0.07 0.01 65 1022.5
20260503175344 69 218 0.0 0.0 0.00 0.09 0.01 68 1022.6
20260503174328 67 317 0.0 5.0 0.00 0.09 0.01 68 1022.6
20260503173344 67 354 0.0 2.0 0.00 0.09 0.01 68 1022.7
20260503172330 67 29 0.0 2.0 0.00 0.09 0.01 69 1022.7
20260503171318 67 30 2.0 4.0 0.00 0.09 0.01 69 1022.8
20260503170335 67 4 2.0 5.0 0.00 0.09 0.01 70 1022.9
20260503150329 64 320 0.0 4.0 0.00 0.19 0.01 84 1023.7
20260503131318 54 24 0.0 0.0 0.00 0.42 0.01 100 1023.0
20260503130332 53 27 0.0 0.0 0.00 0.42 0.01 100 1023.0
20260503110330 44 27 0.0 0.0 0.00 0.54 0.01 100 1021.7
20260503000357 55 27 0.0 1.0 0.00 0.76 0.75 100 1016.1
20260502235323 55 27 0.0 4.0 0.00 0.76 0.75 100 1015.8
20260502234331 55 27 0.0 2.0 0.00 0.76 0.75 100 1015.8
20260502233319 55 27 0.0 2.0 0.00 0.76 0.75 100 1015.2
20260502232335 55 31 1.0 3.0 0.00 0.76 0.75 100 1015.3
20260502231325 55 33 1.0 4.0 0.00 0.76 0.75 100 1015.1
20260502230342 55 17 1.0 8.0 0.00 0.76 0.75 100 1015.0
20260502225354 55 48 1.0 5.0 0.00 0.76 0.75 100 1015.1
20260502224324 55 43 0.0 0.0 0.00 0.76 0.75 100 1015.3
20260502223339 55 44 0.0 2.0 0.00 0.76 0.75 100 1015.0
20260502222332 55 48 1.0 6.0 0.00 0.76 0.75 100 1014.9
20260502221318 55 37 3.0 9.0 0.00 0.76 0.75 100 1014.7
20260502220333 56 354 1.0 5.0 0.00 0.76 0.75 100 1014.9
20260502215321 56 66 2.0 7.0 0.00 0.77 0.75 100 1014.7
20260502214355 56 70 3.0 8.0 0.00 0.77 0.75 100 1014.6
20260502213322 56 320 2.0 5.0 0.00 0.77 0.75 100 1014.5
20260502212334 56 325 1.0 3.0 0.00 0.77 0.75 100 1014.3